Weather History for KRWI - January, 2013

Change the Weather History Date:

Friday, January 25, 2013

  Actual Average (KETC) Record (KETC)
Temperature  
Mean Temperature 22 °F -  
Max Temperature 28 °F 55 °F 76 °F (1950)
Min Temperature 17 °F 32 °F 13 °F (1963)
Degree Days  
Heating Degree Days 42    
Moisture  
Dew Point 19 °F    
Average Humidity 76    
Maximum Humidity 93    
Minimum Humidity 43    
Precipitation  
Precipitation 0.34 in - - ()
Sea Level Pressure  
Sea Level Pressure 30.30 in    
Wind  
Wind Speed 1 mph (WSW)    
Max Wind Speed 7 mph    
Max Gust Speed -    
Visibility 6 miles    
Events Rain , Snow    
Averages and records for this station are not official NWS values.
T = Trace of Precipitation, MM = Missing Value Source: NWS Daily Summary

Daily Weather History Graph

Daily Weather History Graph

Search for Another Location

Airport or City:

Trip Planner

Search our weather history database for the weather conditions in past years. The results will help you decide how hot, cold, wet, or windy it might be!

Date:

Astronomy

Jan. 25, 2013 Rise Set
Actual Time 7:16 AM EST 5:31 PM EST
Civil Twilight 6:49 AM EST 5:59 PM EST
Nautical Twilight 6:18 AM EST 6:30 PM EST
Astronomical Twilight 5:48 AM EST 7:00 PM EST
Moon 4:27 PM EST (1/25) 5:54 AM EST (1/25)
Length of Visible Light 11h 09m
Length of Day
10h 15m
Waxing Gibbous, 98% of the Moon is Illuminated
Jan 25
Waxing Gibbous
Jan 26
Full
Feb 3
Last Quarter
Feb 10
New
Feb 17
First Quarter

Hourly Weather History & Observations

Time (EST) Temp. Windchill Dew Point Humidity Pressure Visibility Wind Dir Wind Speed Gust Speed Precip Events Conditions
12:53 AM 19.9 °F - 7.0 °F 57% 30.52 in 10.0 mi Calm Calm - N/A   Clear
1:53 AM 21.0 °F - 6.1 °F 53% 30.53 in 10.0 mi Calm Calm - N/A   Clear
2:53 AM 19.0 °F - 10.0 °F 68% 30.54 in 10.0 mi Calm Calm - N/A   Clear
3:53 AM 18.0 °F - 10.9 °F 74% 30.53 in 10.0 mi Calm Calm - N/A   Clear
4:53 AM 17.1 °F - 10.9 °F 77% 30.53 in 10.0 mi Calm Calm - N/A   Clear
5:53 AM 19.0 °F - 12.0 °F 74% 30.53 in 10.0 mi Calm Calm - N/A   Clear
6:53 AM 21.0 °F - 12.9 °F 71% 30.53 in 10.0 mi Calm Calm - N/A   Clear
7:53 AM 23.0 °F - 14.0 °F 68% 30.51 in 10.0 mi Calm Calm - N/A   Clear
8:53 AM 24.1 °F - 8.1 °F 51% 30.48 in 10.0 mi Calm Calm - N/A   Clear
9:53 AM 26.1 °F - 9.0 °F 49% 30.49 in 10.0 mi Calm Calm - N/A   Partly Cloudy
10:53 AM 27.0 °F - 7.0 °F 43% 30.46 in 10.0 mi Calm Calm - N/A   Overcast
11:53 AM 27.0 °F - 7.0 °F 43% 30.41 in 10.0 mi Calm Calm - N/A   Overcast
12:49 PM 26.6 °F 20.0 °F 15.8 °F 64% 30.34 in 1.8 mi South 5.8 mph - 0.00 in Snow Light Snow
12:50 PM 24.8 °F 19.1 °F 15.8 °F 69% 30.33 in 1.8 mi South 4.6 mph - 0.00 in Snow Light Snow
12:53 PM 25.0 °F 19.3 °F 16.0 °F 69% 30.35 in 1.2 mi SSW 4.6 mph - 0.00 in Snow Light Snow
1:03 PM 24.8 °F - 15.8 °F 69% 30.33 in 2.0 mi Calm Calm - 0.01 in Snow Light Snow
1:11 PM 26.6 °F - 17.6 °F 69% 30.32 in 6.0 mi Calm Calm - 0.01 in   Overcast
1:45 PM 26.6 °F - 17.6 °F 69% 30.28 in 6.0 mi Calm Calm - 0.02 in Rain Light Freezing Rain
1:53 PM 25.0 °F - 19.0 °F 78% 30.29 in 6.0 mi Calm Calm - 0.02 in Rain Light Freezing Rain
2:00 PM 24.8 °F - 19.4 °F 80% 30.26 in 8.0 mi Calm Calm - 0.00 in   Overcast
2:38 PM 26.6 °F - 19.4 °F 74% 30.27 in 5.0 mi Calm Calm - 0.02 in Rain Light Freezing Rain
2:53 PM 26.1 °F 21.9 °F 19.9 °F 78% 30.28 in 5.0 mi NNW 3.5 mph - 0.03 in Rain Light Freezing Rain
3:30 PM 26.6 °F - 21.2 °F 80% 30.23 in 3.0 mi Calm Calm - 0.05 in Rain Light Freezing Rain
3:53 PM 27.0 °F 21.6 °F 23.0 °F 85% 30.22 in 3.0 mi Variable 4.6 mph - 0.09 in   Overcast
4:00 PM 26.6 °F - 23.0 °F 86% 30.22 in 4.0 mi Calm Calm - 0.02 in Rain Light Freezing Rain
4:32 PM 26.6 °F - 23.0 °F 86% 30.18 in 3.0 mi Calm Calm - 0.07 in Rain Light Freezing Rain
4:42 PM 26.6 °F 21.2 °F 24.8 °F 93% 30.18 in 3.0 mi West 4.6 mph - 0.09 in Rain Light Freezing Rain
4:53 PM 28.0 °F 22.8 °F 24.1 °F 85% 30.20 in 4.0 mi WNW 4.6 mph - 0.10 in Rain Light Freezing Rain
5:18 PM 28.4 °F 24.6 °F 24.8 °F 86% 30.18 in 2.5 mi NW 3.5 mph - 0.04 in Rain Light Freezing Rain
5:37 PM 28.4 °F - 24.8 °F 86% 30.18 in 4.0 mi Calm Calm - 0.06 in Rain Light Freezing Rain
5:53 PM 28.0 °F - 25.0 °F 88% 30.18 in 3.0 mi Calm Calm - 0.08 in Rain Light Freezing Rain
5:58 PM 28.4 °F - 24.8 °F 86% 30.17 in 2.5 mi Calm Calm - 0.00 in Rain Light Freezing Rain
6:14 PM 28.4 °F - 26.6 °F 93% 30.17 in 3.0 mi Calm Calm - 0.01 in Rain Light Freezing Rain
6:53 PM 28.0 °F 24.2 °F 26.1 °F 92% 30.19 in 5.0 mi WNW 3.5 mph - 0.01 in Rain Light Freezing Rain
7:19 PM 28.4 °F - 26.6 °F 93% 30.17 in 9.0 mi Calm Calm - 0.00 in   Overcast
7:53 PM 28.9 °F - 26.1 °F 89% 30.16 in 7.0 mi Calm Calm - 0.00 in   Overcast
8:53 PM 28.9 °F 23.9 °F 26.1 °F 89% 30.14 in 6.0 mi SSW 4.6 mph - 0.01 in   Overcast
9:48 PM 28.4 °F 23.3 °F 26.6 °F 93% 30.14 in 7.0 mi SW 4.6 mph - N/A   Overcast
9:53 PM 28.9 °F 23.9 °F 26.1 °F 89% 30.14 in 7.0 mi SSW 4.6 mph - N/A   Overcast
10:53 PM 28.9 °F 22.8 °F 26.1 °F 89% 30.14 in 8.0 mi SW 5.8 mph - N/A   Overcast
11:44 PM 28.4 °F 21.2 °F 24.8 °F 86% 30.12 in 7.0 mi WSW 6.9 mph - N/A   Overcast
11:53 PM 28.9 °F 21.9 °F 26.1 °F 89% 30.13 in 7.0 mi WSW 6.9 mph - N/A   Overcast